Track SL-16 R/B now! 10-day predictions SL-16 R/B is classified as:
1 23705U 95058B 21104.35403052 -.00000276 00000-0 -11750-3 0 9998 2 23705 71.0232 337.6220 0013894 319.9980 40.0118 14.15146210314840